Year,Month,Day,Hour,Minute,Value (Times are PST for temperature in C)
2015,01,16,00,00,5.90
2015,01,16,00,01,5.90
2015,01,16,00,02,5.90
2015,01,16,00,03,5.90
2015,01,16,00,04,5.90
2015,01,16,00,05,5.90
2015,01,16,00,06,5.90
2015,01,16,00,07,5.90
2015,01,16,00,08,5.90
2015,01,16,00,09,5.90
2015,01,16,00,10,5.90
2015,01,16,00,11,5.90
2015,01,16,00,12,5.80
2015,01,16,00,13,5.90
2015,01,16,00,14,5.80
2015,01,16,00,15,5.80
2015,01,16,00,16,5.80
2015,01,16,00,17,5.80
2015,01,16,00,18,5.80
2015,01,16,00,19,5.80
2015,01,16,00,20,5.80
2015,01,16,00,21,5.80
2015,01,16,00,22,5.80
2015,01,16,00,23,5.80
2015,01,16,00,24,5.80
2015,01,16,00,25,5.80
2015,01,16,00,26,5.80
2015,01,16,00,27,5.80
2015,01,16,00,28,5.80
2015,01,16,00,29,5.80
2015,01,16,00,30,5.80
2015,01,16,00,31,5.80
2015,01,16,00,32,5.80
2015,01,16,00,33,5.80
2015,01,16,00,34,5.80
2015,01,16,00,35,5.80
2015,01,16,00,36,5.80
2015,01,16,00,37,5.80
2015,01,16,00,38,5.80
2015,01,16,00,39,5.80
2015,01,16,00,40,5.80
2015,01,16,00,41,5.80
2015,01,16,00,42,5.80
2015,01,16,00,43,5.80
2015,01,16,00,44,5.80
2015,01,16,00,45,5.80
2015,01,16,00,46,5.80
2015,01,16,00,47,5.80
2015,01,16,00,48,5.80
2015,01,16,00,49,5.80
2015,01,16,00,50,5.80
2015,01,16,00,51,5.80
2015,01,16,00,52,5.80
2015,01,16,00,53,5.80
2015,01,16,00,54,5.80
2015,01,16,00,55,5.80
2015,01,16,00,56,5.80
2015,01,16,00,57,5.80
2015,01,16,00,58,5.80
2015,01,16,00,59,5.80
2015,01,16,01,00,5.80
2015,01,16,01,01,5.80
2015,01,16,01,02,5.80
2015,01,16,01,03,5.80
2015,01,16,01,04,5.80
2015,01,16,01,05,5.80
2015,01,16,01,06,5.80
2015,01,16,01,07,5.80
2015,01,16,01,08,5.80
2015,01,16,01,09,5.80
2015,01,16,01,10,5.80
2015,01,16,01,11,5.80
2015,01,16,01,12,5.80
2015,01,16,01,13,5.80
2015,01,16,01,14,5.80
2015,01,16,01,15,5.80
2015,01,16,01,16,5.80
2015,01,16,01,17,5.80
2015,01,16,01,18,5.80
2015,01,16,01,19,5.80
2015,01,16,01,20,5.80
2015,01,16,01,21,5.80
2015,01,16,01,22,5.80
2015,01,16,01,23,5.80
2015,01,16,01,24,5.80
2015,01,16,01,25,5.80
2015,01,16,01,26,5.80
2015,01,16,01,27,5.80
2015,01,16,01,28,5.80
2015,01,16,01,29,5.80
2015,01,16,01,30,5.80
2015,01,16,01,31,5.80
2015,01,16,01,32,5.80
2015,01,16,01,33,5.80
2015,01,16,01,34,5.80
2015,01,16,01,35,5.80
2015,01,16,01,36,5.80
2015,01,16,01,37,5.80
2015,01,16,01,38,5.80
2015,01,16,01,39,5.80
2015,01,16,01,40,5.80
2015,01,16,01,41,5.80
2015,01,16,01,42,5.80
2015,01,16,01,43,5.80
2015,01,16,01,44,5.80
2015,01,16,01,45,5.80
2015,01,16,01,46,5.80
2015,01,16,01,47,5.80
2015,01,16,01,48,5.80
2015,01,16,01,49,5.80
2015,01,16,01,50,5.80
2015,01,16,01,51,5.80
2015,01,16,01,52,5.80
2015,01,16,01,53,5.80
2015,01,16,01,54,5.80
2015,01,16,01,55,5.80
2015,01,16,01,56,5.80
2015,01,16,01,57,5.80
2015,01,16,01,58,5.80
2015,01,16,01,59,5.80
2015,01,16,02,00,5.80
2015,01,16,02,01,5.80
2015,01,16,02,02,5.80
2015,01,16,02,03,5.80
2015,01,16,02,04,5.80
2015,01,16,02,05,5.70
2015,01,16,02,06,5.70
2015,01,16,02,07,5.70
2015,01,16,02,08,5.70
2015,01,16,02,09,5.70
2015,01,16,02,10,5.70
2015,01,16,02,11,5.70
2015,01,16,02,12,5.70
2015,01,16,02,13,5.70
2015,01,16,02,14,5.70
2015,01,16,02,15,5.70
2015,01,16,02,16,5.70
2015,01,16,02,17,5.70
2015,01,16,02,18,5.70
2015,01,16,02,19,5.70
2015,01,16,02,20,5.70
2015,01,16,02,21,5.70
2015,01,16,02,22,5.70
2015,01,16,02,23,5.70
2015,01,16,02,24,5.70
2015,01,16,02,25,5.70
2015,01,16,02,26,5.70
2015,01,16,02,27,5.70
2015,01,16,02,28,5.70
2015,01,16,02,29,5.70
2015,01,16,02,30,5.60
2015,01,16,02,31,5.60
2015,01,16,02,32,5.60
2015,01,16,02,33,5.60
2015,01,16,02,34,5.60
2015,01,16,02,35,5.60
2015,01,16,02,36,5.60
2015,01,16,02,37,5.70
2015,01,16,02,38,5.70
2015,01,16,02,39,5.70
2015,01,16,02,40,5.70
2015,01,16,02,41,5.70
2015,01,16,02,42,5.60
2015,01,16,02,43,5.60
2015,01,16,02,44,5.60
2015,01,16,02,45,5.60
2015,01,16,02,46,5.60
2015,01,16,02,47,5.60
2015,01,16,02,48,5.60
2015,01,16,02,49,5.60
2015,01,16,02,50,5.60
2015,01,16,02,51,5.60
2015,01,16,02,52,5.60
2015,01,16,02,53,5.60
2015,01,16,02,54,5.60
2015,01,16,02,55,5.60
2015,01,16,02,56,5.60
2015,01,16,02,57,5.60
2015,01,16,02,58,5.60
2015,01,16,02,59,5.60
2015,01,16,03,00,5.60
2015,01,16,03,01,5.60
2015,01,16,03,02,5.60
2015,01,16,03,03,5.60
2015,01,16,03,04,5.60
2015,01,16,03,05,5.60
2015,01,16,03,06,5.60
2015,01,16,03,07,5.60
2015,01,16,03,08,5.60
2015,01,16,03,09,5.60
2015,01,16,03,10,5.60
2015,01,16,03,11,5.60
2015,01,16,03,12,5.60
2015,01,16,03,13,5.60
2015,01,16,03,14,5.60
2015,01,16,03,15,5.60
2015,01,16,03,16,5.60
2015,01,16,03,17,5.60
2015,01,16,03,18,5.60
2015,01,16,03,19,5.60
2015,01,16,03,20,5.60
2015,01,16,03,21,5.60
2015,01,16,03,22,5.60
2015,01,16,03,23,5.60
2015,01,16,03,24,5.60
2015,01,16,03,25,5.60
2015,01,16,03,26,5.60
2015,01,16,03,27,5.60
2015,01,16,03,28,5.60
2015,01,16,03,29,5.60
2015,01,16,03,30,5.60
2015,01,16,03,31,5.60
2015,01,16,03,32,5.60
2015,01,16,03,33,5.50
2015,01,16,03,34,5.50
2015,01,16,03,35,5.50
2015,01,16,03,36,5.50
2015,01,16,03,37,5.50
2015,01,16,03,38,5.50
2015,01,16,03,39,5.50
2015,01,16,03,40,5.40
2015,01,16,03,41,5.40
2015,01,16,03,42,5.40
2015,01,16,03,43,5.40
2015,01,16,03,44,5.50
2015,01,16,03,45,5.50
2015,01,16,03,46,5.50
2015,01,16,03,47,5.50
2015,01,16,03,48,5.50
2015,01,16,03,49,5.50
2015,01,16,03,50,5.50
2015,01,16,03,51,5.50
2015,01,16,03,52,5.50
2015,01,16,03,53,5.40
2015,01,16,03,54,5.40
2015,01,16,03,55,5.40
2015,01,16,03,56,5.40
2015,01,16,03,57,5.40
2015,01,16,03,58,5.40
2015,01,16,03,59,5.40
2015,01,16,04,00,5.40
2015,01,16,04,01,5.50
2015,01,16,04,02,5.50
2015,01,16,04,03,5.50
2015,01,16,04,04,5.50
2015,01,16,04,05,5.60
2015,01,16,04,06,5.60
2015,01,16,04,07,5.60
2015,01,16,04,08,5.60
2015,01,16,04,09,5.60
2015,01,16,04,10,5.60
2015,01,16,04,11,5.60
2015,01,16,04,12,5.60
2015,01,16,04,13,5.60
2015,01,16,04,14,5.60
2015,01,16,04,15,5.60
2015,01,16,04,16,5.60
2015,01,16,04,17,5.50
2015,01,16,04,18,5.50
2015,01,16,04,19,5.50
2015,01,16,04,20,5.50
2015,01,16,04,21,5.50
2015,01,16,04,22,5.50
2015,01,16,04,23,5.50
2015,01,16,04,24,5.50
2015,01,16,04,25,5.50
2015,01,16,04,26,5.50
2015,01,16,04,27,5.50
2015,01,16,04,28,5.50
2015,01,16,04,29,5.50
2015,01,16,04,30,5.50
2015,01,16,04,31,5.50
2015,01,16,04,32,5.50
2015,01,16,04,33,5.50
2015,01,16,04,34,5.50
2015,01,16,04,35,5.50
2015,01,16,04,36,5.50
2015,01,16,04,37,5.50
2015,01,16,04,38,5.50
2015,01,16,04,39,5.50
2015,01,16,04,40,5.50
2015,01,16,04,41,5.50
2015,01,16,04,42,5.50
2015,01,16,04,43,5.50
2015,01,16,04,44,5.50
2015,01,16,04,45,5.50
2015,01,16,04,46,5.50
2015,01,16,04,47,5.50
2015,01,16,04,48,5.50
2015,01,16,04,49,5.50
2015,01,16,04,50,5.50
2015,01,16,04,51,5.50
2015,01,16,04,52,5.50
2015,01,16,04,53,5.50
2015,01,16,04,54,5.50
2015,01,16,04,55,5.50
2015,01,16,04,56,5.40
2015,01,16,04,57,5.40
2015,01,16,04,58,5.40
2015,01,16,04,59,5.40
2015,01,16,05,00,5.40
2015,01,16,05,01,5.40
2015,01,16,05,02,5.40
2015,01,16,05,03,5.40
2015,01,16,05,04,5.40
2015,01,16,05,05,5.40
2015,01,16,05,06,5.40
2015,01,16,05,07,5.40
2015,01,16,05,08,5.40
2015,01,16,05,09,5.40
2015,01,16,05,10,5.40
2015,01,16,05,11,5.40
2015,01,16,05,12,5.40
2015,01,16,05,13,5.40
2015,01,16,05,14,5.40
2015,01,16,05,15,5.40
2015,01,16,05,16,5.40
2015,01,16,05,17,5.40
2015,01,16,05,18,5.40
2015,01,16,05,19,5.40
2015,01,16,05,20,5.40
2015,01,16,05,21,5.40
2015,01,16,05,22,5.40
2015,01,16,05,23,5.40
2015,01,16,05,24,5.40
2015,01,16,05,25,5.40
2015,01,16,05,26,5.40
2015,01,16,05,27,5.50
2015,01,16,05,28,5.50
2015,01,16,05,29,5.50
2015,01,16,05,30,5.50
2015,01,16,05,31,5.50
2015,01,16,05,32,5.50
2015,01,16,05,33,5.50
2015,01,16,05,34,5.50
2015,01,16,05,35,5.50
2015,01,16,05,36,5.50
2015,01,16,05,37,5.50
2015,01,16,05,38,5.40
2015,01,16,05,39,5.40
2015,01,16,05,40,5.40
2015,01,16,05,41,5.40
2015,01,16,05,42,5.40
2015,01,16,05,43,5.40
2015,01,16,05,44,5.40
2015,01,16,05,45,5.40
2015,01,16,05,46,5.40
2015,01,16,05,47,5.30
2015,01,16,05,48,5.30
2015,01,16,05,49,5.30
2015,01,16,05,50,5.30
2015,01,16,05,51,5.30
2015,01,16,05,52,5.30
2015,01,16,05,53,5.30
2015,01,16,05,54,5.30
2015,01,16,05,55,5.30
2015,01,16,05,56,5.30
2015,01,16,05,57,5.30
2015,01,16,05,58,5.40
2015,01,16,05,59,5.40
2015,01,16,06,00,5.40
2015,01,16,06,01,5.40
2015,01,16,06,02,5.40
2015,01,16,06,03,5.40
2015,01,16,06,04,5.30
2015,01,16,06,05,5.30
2015,01,16,06,06,5.30
2015,01,16,06,07,5.30
2015,01,16,06,08,5.30
2015,01,16,06,09,5.30
2015,01,16,06,10,5.30
2015,01,16,06,11,5.30
2015,01,16,06,12,5.30
2015,01,16,06,13,5.30
2015,01,16,06,14,5.20
2015,01,16,06,15,5.20
2015,01,16,06,16,5.20
2015,01,16,06,17,5.20
2015,01,16,06,18,5.20
2015,01,16,06,19,5.20
2015,01,16,06,20,5.20
2015,01,16,06,21,5.20
2015,01,16,06,22,5.20
2015,01,16,06,23,5.20
2015,01,16,06,24,5.20
2015,01,16,06,25,5.20
2015,01,16,06,26,5.20
2015,01,16,06,27,5.20
2015,01,16,06,28,5.20
2015,01,16,06,29,5.10
2015,01,16,06,30,5.10
2015,01,16,06,31,5.10
2015,01,16,06,32,5.00
2015,01,16,06,33,4.90
2015,01,16,06,34,4.90
2015,01,16,06,35,4.90
2015,01,16,06,36,4.90
2015,01,16,06,37,4.80
2015,01,16,06,38,4.80
2015,01,16,06,39,4.80
2015,01,16,06,40,4.80
2015,01,16,06,41,4.80
2015,01,16,06,42,4.80
2015,01,16,06,43,4.70
2015,01,16,06,44,4.70
2015,01,16,06,45,4.70
2015,01,16,06,46,4.70
2015,01,16,06,47,4.70
2015,01,16,06,48,4.70
2015,01,16,06,49,4.70
2015,01,16,06,50,4.60
2015,01,16,06,51,4.50
2015,01,16,06,52,4.50
2015,01,16,06,53,4.40
2015,01,16,06,54,4.40
2015,01,16,06,55,4.40
2015,01,16,06,56,4.40
2015,01,16,06,57,4.40
2015,01,16,06,58,4.40
2015,01,16,06,59,4.40
2015,01,16,07,00,4.40
2015,01,16,07,01,4.40
2015,01,16,07,02,4.50
2015,01,16,07,03,4.50
2015,01,16,07,04,4.40
2015,01,16,07,05,4.50
2015,01,16,07,06,4.40
2015,01,16,07,07,4.40
2015,01,16,07,08,4.40
2015,01,16,07,09,4.40
2015,01,16,07,10,4.40
2015,01,16,07,11,4.30
2015,01,16,07,12,4.30
2015,01,16,07,13,4.30
2015,01,16,07,14,4.30
2015,01,16,07,15,4.20
2015,01,16,07,16,4.20
2015,01,16,07,17,4.20
2015,01,16,07,18,4.20
2015,01,16,07,19,4.20
2015,01,16,07,20,4.20
2015,01,16,07,21,4.20
2015,01,16,07,22,4.10
2015,01,16,07,23,4.10
2015,01,16,07,24,4.10
2015,01,16,07,25,4.10
2015,01,16,07,26,4.10
2015,01,16,07,27,4.00
2015,01,16,07,28,4.00
2015,01,16,07,29,4.00
2015,01,16,07,30,3.90
2015,01,16,07,31,3.90
2015,01,16,07,32,3.90
2015,01,16,07,33,3.90
2015,01,16,07,34,3.90
2015,01,16,07,35,3.90
2015,01,16,07,36,3.90
2015,01,16,07,37,3.90
2015,01,16,07,38,3.90
2015,01,16,07,39,3.90
2015,01,16,07,40,3.90
2015,01,16,07,41,3.80
2015,01,16,07,42,3.80
2015,01,16,07,43,3.80
2015,01,16,07,44,3.80
2015,01,16,07,45,3.80
2015,01,16,07,46,3.80
2015,01,16,07,47,3.80
2015,01,16,07,48,3.70
2015,01,16,07,49,3.70
2015,01,16,07,50,3.70
2015,01,16,07,51,3.60
2015,01,16,07,52,3.60
2015,01,16,07,53,3.60
2015,01,16,07,54,3.50
2015,01,16,07,55,3.50
2015,01,16,07,56,3.40
2015,01,16,07,57,3.40
2015,01,16,07,58,3.40
2015,01,16,07,59,3.30
2015,01,16,08,00,3.30
2015,01,16,08,01,3.30
2015,01,16,08,02,3.30
2015,01,16,08,03,3.30
2015,01,16,08,04,3.30
2015,01,16,08,05,3.30
2015,01,16,08,06,3.30
2015,01,16,08,07,3.30
2015,01,16,08,08,3.30
2015,01,16,08,09,3.30
2015,01,16,08,10,3.20
2015,01,16,08,11,3.20
2015,01,16,08,12,3.20
2015,01,16,08,13,3.20
2015,01,16,08,14,3.20
2015,01,16,08,15,3.20
2015,01,16,08,16,3.30
2015,01,16,08,17,3.30
2015,01,16,08,18,3.30
2015,01,16,08,19,3.30
2015,01,16,08,20,3.30
2015,01,16,08,21,3.30
2015,01,16,08,22,3.30
2015,01,16,08,23,3.30
2015,01,16,08,24,3.30
2015,01,16,08,25,3.30
2015,01,16,08,26,3.40
2015,01,16,08,27,3.40
2015,01,16,08,28,3.40
2015,01,16,08,29,3.40
2015,01,16,08,30,3.40
2015,01,16,08,31,3.40
2015,01,16,08,32,3.40
2015,01,16,08,33,3.40
2015,01,16,08,34,3.40
2015,01,16,08,35,3.40
2015,01,16,08,36,3.50
2015,01,16,08,37,3.50
2015,01,16,08,38,3.50
2015,01,16,08,39,3.60
2015,01,16,08,40,3.60
2015,01,16,08,41,3.60
2015,01,16,08,42,3.60
2015,01,16,08,43,3.70
2015,01,16,08,44,3.70
2015,01,16,08,45,3.70
2015,01,16,08,46,3.70
2015,01,16,08,47,3.60
2015,01,16,08,48,3.60
2015,01,16,08,49,3.60
2015,01,16,08,50,3.60
2015,01,16,08,51,3.60
2015,01,16,08,52,3.60
2015,01,16,08,53,3.60
2015,01,16,08,54,3.60
2015,01,16,08,55,3.60
2015,01,16,08,56,3.60
2015,01,16,08,57,3.60
2015,01,16,08,58,3.60
2015,01,16,08,59,3.60
2015,01,16,09,00,3.60
2015,01,16,09,01,3.60
2015,01,16,09,02,3.50
2015,01,16,09,03,3.50
2015,01,16,09,04,3.50
2015,01,16,09,05,3.50
2015,01,16,09,06,3.50
2015,01,16,09,07,3.50
2015,01,16,09,08,3.60
2015,01,16,09,09,3.60
2015,01,16,09,10,3.70
2015,01,16,09,11,3.70
2015,01,16,09,12,3.70
2015,01,16,09,13,3.70
2015,01,16,09,14,3.80
2015,01,16,09,15,3.80
2015,01,16,09,16,3.80
2015,01,16,09,17,3.80
2015,01,16,09,18,3.70
2015,01,16,09,19,3.70
2015,01,16,09,20,3.70
2015,01,16,09,21,3.70
2015,01,16,09,22,3.70
2015,01,16,09,23,3.70
2015,01,16,09,24,3.70
2015,01,16,09,25,3.70
2015,01,16,09,26,3.70
2015,01,16,09,27,3.70
2015,01,16,09,28,3.70
2015,01,16,09,29,3.70
2015,01,16,09,30,3.70
2015,01,16,09,31,3.80
2015,01,16,09,32,3.80
2015,01,16,09,33,3.80
2015,01,16,09,34,3.80
2015,01,16,09,35,3.80
2015,01,16,09,36,3.80
2015,01,16,09,37,3.80
2015,01,16,09,38,3.80
2015,01,16,09,39,3.80
2015,01,16,09,40,3.80
2015,01,16,09,41,3.90
2015,01,16,09,42,3.90
2015,01,16,09,43,3.90
2015,01,16,09,44,3.90
2015,01,16,09,45,3.90
2015,01,16,09,46,3.90
2015,01,16,09,47,3.90
2015,01,16,09,48,3.90
2015,01,16,09,49,3.90
2015,01,16,09,50,3.90
2015,01,16,09,51,3.90
2015,01,16,09,52,3.90
2015,01,16,09,53,4.00
2015,01,16,09,54,4.00
2015,01,16,09,55,4.00
2015,01,16,09,56,4.00
2015,01,16,09,57,4.00
2015,01,16,09,58,4.00
2015,01,16,09,59,4.00
2015,01,16,10,00,4.00
2015,01,16,10,01,4.00
2015,01,16,10,02,4.00
2015,01,16,10,03,4.00
2015,01,16,10,04,4.00
2015,01,16,10,05,4.00
2015,01,16,10,06,4.00
2015,01,16,10,07,4.00
2015,01,16,10,08,4.10
2015,01,16,10,09,4.10
2015,01,16,10,10,4.10
2015,01,16,10,11,4.10
2015,01,16,10,12,4.10
2015,01,16,10,13,4.10
2015,01,16,10,14,4.10
2015,01,16,10,15,4.10
2015,01,16,10,16,4.10
2015,01,16,10,17,4.10
2015,01,16,10,18,4.10
2015,01,16,10,19,4.10
2015,01,16,10,20,4.10
2015,01,16,10,21,4.10
2015,01,16,10,22,4.10
2015,01,16,10,23,4.00
2015,01,16,10,24,4.00
2015,01,16,10,25,4.00
2015,01,16,10,26,4.00
2015,01,16,10,27,4.10
2015,01,16,10,28,4.10
2015,01,16,10,29,4.10
2015,01,16,10,30,4.00
2015,01,16,10,31,4.10
2015,01,16,10,32,4.10
2015,01,16,10,33,4.10
2015,01,16,10,34,4.10
2015,01,16,10,35,4.10
2015,01,16,10,36,4.10
2015,01,16,10,37,4.10
2015,01,16,10,38,4.00
2015,01,16,10,39,4.00
2015,01,16,10,40,4.00
2015,01,16,10,41,4.00
2015,01,16,10,42,4.00
2015,01,16,10,43,4.00
2015,01,16,10,44,4.00
2015,01,16,10,45,4.10
2015,01,16,10,46,4.10
2015,01,16,10,47,4.10
2015,01,16,10,48,4.10
2015,01,16,10,49,4.10
2015,01,16,10,50,4.10
2015,01,16,10,51,4.20
2015,01,16,10,52,4.20
2015,01,16,10,53,4.20
2015,01,16,10,54,4.30
2015,01,16,10,55,4.30
2015,01,16,10,56,4.40
2015,01,16,10,57,4.40
2015,01,16,10,58,4.40
2015,01,16,10,59,4.40
2015,01,16,11,00,4.40
2015,01,16,11,01,4.50
2015,01,16,11,02,4.50
2015,01,16,11,03,4.50
2015,01,16,11,04,4.50
2015,01,16,11,05,4.60
2015,01,16,11,06,4.60
2015,01,16,11,07,4.60
2015,01,16,11,08,4.60
2015,01,16,11,09,4.60
2015,01,16,11,10,4.70
2015,01,16,11,11,4.70
2015,01,16,11,12,4.70
2015,01,16,11,13,4.70
2015,01,16,11,14,4.70
2015,01,16,11,15,4.80
2015,01,16,11,16,4.80
2015,01,16,11,17,4.80
2015,01,16,11,18,4.80
2015,01,16,11,19,4.80
2015,01,16,11,20,4.80
2015,01,16,11,21,4.90
2015,01,16,11,22,4.90
2015,01,16,11,23,4.90
2015,01,16,11,24,4.90
2015,01,16,11,25,5.00
2015,01,16,11,26,5.00
2015,01,16,11,27,5.00
2015,01,16,11,28,5.10
2015,01,16,11,29,5.10
2015,01,16,11,30,5.10
2015,01,16,11,31,5.10
2015,01,16,11,32,5.20
2015,01,16,11,33,5.20
2015,01,16,11,34,5.20
2015,01,16,11,35,5.20
2015,01,16,11,36,5.20
2015,01,16,11,37,5.30
2015,01,16,11,38,5.30
2015,01,16,11,39,5.30
2015,01,16,11,40,5.30
2015,01,16,11,41,5.30
2015,01,16,11,42,5.30
2015,01,16,11,43,5.30
2015,01,16,11,44,5.30
2015,01,16,11,45,5.40
2015,01,16,11,46,5.50
2015,01,16,11,47,5.50
2015,01,16,11,48,5.60
2015,01,16,11,49,5.60
2015,01,16,11,50,5.60
2015,01,16,11,51,5.70
2015,01,16,11,52,5.70
2015,01,16,11,53,5.80
2015,01,16,11,54,5.90
2015,01,16,11,55,5.90
2015,01,16,11,56,6.00
2015,01,16,11,57,6.00
2015,01,16,11,58,6.00
2015,01,16,11,59,6.00
2015,01,16,12,00,6.00
2015,01,16,12,01,6.00
2015,01,16,12,02,6.10
2015,01,16,12,03,6.10
2015,01,16,12,04,6.20
2015,01,16,12,05,6.20
2015,01,16,12,06,6.20
2015,01,16,12,07,6.20
2015,01,16,12,08,6.30
2015,01,16,12,09,6.30
2015,01,16,12,10,6.30
2015,01,16,12,11,6.30
2015,01,16,12,12,6.40
2015,01,16,12,13,6.40
2015,01,16,12,14,6.50
2015,01,16,12,15,6.50
2015,01,16,12,16,6.60
2015,01,16,12,17,6.60
2015,01,16,12,18,6.60
2015,01,16,12,19,6.60
2015,01,16,12,20,6.70
2015,01,16,12,21,6.60
2015,01,16,12,22,6.60
2015,01,16,12,23,6.60
2015,01,16,12,24,6.60
2015,01,16,12,25,6.60
2015,01,16,12,26,6.50
2015,01,16,12,27,6.50
2015,01,16,12,28,6.50
2015,01,16,12,29,6.50
2015,01,16,12,30,6.50
2015,01,16,12,31,6.50
2015,01,16,12,32,6.40
2015,01,16,12,33,6.40
2015,01,16,12,34,6.40
2015,01,16,12,35,6.40
2015,01,16,12,36,6.40
2015,01,16,12,37,6.50
2015,01,16,12,38,6.50
2015,01,16,12,39,6.50
2015,01,16,12,40,6.60
2015,01,16,12,41,6.60
2015,01,16,12,42,6.60
2015,01,16,12,43,6.70
2015,01,16,12,44,6.70
2015,01,16,12,45,6.80
2015,01,16,12,46,6.80
2015,01,16,12,47,6.90
2015,01,16,12,48,6.90
2015,01,16,12,49,7.00
2015,01,16,12,50,7.10
2015,01,16,12,51,7.20
2015,01,16,12,52,7.20
2015,01,16,12,53,7.20
2015,01,16,12,54,7.20
2015,01,16,12,55,7.20
2015,01,16,12,56,7.30
2015,01,16,12,57,7.30
2015,01,16,12,58,7.30
2015,01,16,12,59,7.30
2015,01,16,13,00,7.20
2015,01,16,13,01,7.20
2015,01,16,13,02,7.20
2015,01,16,13,03,7.20
2015,01,16,13,04,7.20
2015,01,16,13,05,7.20
2015,01,16,13,06,7.20
2015,01,16,13,07,7.20
2015,01,16,13,08,7.20
2015,01,16,13,09,7.10
2015,01,16,13,10,7.10
2015,01,16,13,11,7.10
2015,01,16,13,12,7.10
2015,01,16,13,13,7.10
2015,01,16,13,14,7.10
2015,01,16,13,15,7.10
2015,01,16,13,16,7.10
2015,01,16,13,17,7.10
2015,01,16,13,18,7.10
2015,01,16,13,19,7.10
2015,01,16,13,20,7.10
2015,01,16,13,21,7.10
2015,01,16,13,22,7.20
2015,01,16,13,23,7.20
2015,01,16,13,24,7.20
2015,01,16,13,25,7.20
2015,01,16,13,26,7.20
2015,01,16,13,27,7.20
2015,01,16,13,28,7.20
2015,01,16,13,29,7.20
2015,01,16,13,30,7.20
2015,01,16,13,31,7.20
2015,01,16,13,32,7.30
2015,01,16,13,33,7.30
2015,01,16,13,34,7.30
2015,01,16,13,35,7.30
2015,01,16,13,36,7.30
2015,01,16,13,37,7.30
2015,01,16,13,38,7.30
2015,01,16,13,39,7.40
2015,01,16,13,40,7.40
2015,01,16,13,41,7.40
2015,01,16,13,42,7.50
2015,01,16,13,43,7.60
2015,01,16,13,44,7.70
2015,01,16,13,45,7.80
2015,01,16,13,46,7.90
2015,01,16,13,47,8.00
2015,01,16,13,48,8.10
2015,01,16,13,49,8.10
2015,01,16,13,50,8.20
2015,01,16,13,51,8.30
2015,01,16,13,52,8.40
2015,01,16,13,53,8.40
2015,01,16,13,54,8.50
2015,01,16,13,55,8.50
2015,01,16,13,56,8.60
2015,01,16,13,57,8.60
2015,01,16,13,58,8.70
2015,01,16,13,59,8.80
2015,01,16,14,00,8.80
2015,01,16,14,01,8.90
2015,01,16,14,02,9.00
2015,01,16,14,03,9.10
2015,01,16,14,04,9.20
2015,01,16,14,05,9.20
2015,01,16,14,06,9.30
2015,01,16,14,07,9.30
2015,01,16,14,08,9.40
2015,01,16,14,09,9.40
2015,01,16,14,10,9.40
2015,01,16,14,11,9.40
2015,01,16,14,12,9.50
2015,01,16,14,13,9.50
2015,01,16,14,14,9.50
2015,01,16,14,15,9.50
2015,01,16,14,16,9.40
2015,01,16,14,17,9.40
2015,01,16,14,18,9.40
2015,01,16,14,19,9.30
2015,01,16,14,20,9.30
2015,01,16,14,21,9.30
2015,01,16,14,22,9.30
2015,01,16,14,23,9.30
2015,01,16,14,24,9.20
2015,01,16,14,25,9.30
2015,01,16,14,26,9.30
2015,01,16,14,27,9.30
2015,01,16,14,28,9.20
2015,01,16,14,29,9.20
2015,01,16,14,30,9.20
2015,01,16,14,31,9.20
2015,01,16,14,32,9.20
2015,01,16,14,33,9.20
2015,01,16,14,34,9.20
2015,01,16,14,35,9.10
2015,01,16,14,36,9.10
2015,01,16,14,37,9.10
2015,01,16,14,38,9.10
2015,01,16,14,39,9.20
2015,01,16,14,40,9.20
2015,01,16,14,41,9.20
2015,01,16,14,42,9.20
2015,01,16,14,43,9.20
2015,01,16,14,44,9.30
2015,01,16,14,45,9.30
2015,01,16,14,46,9.30
2015,01,16,14,47,9.40
2015,01,16,14,48,9.40
2015,01,16,14,49,9.40
2015,01,16,14,50,9.40
2015,01,16,14,51,9.40
2015,01,16,14,52,9.40
2015,01,16,14,53,9.40
2015,01,16,14,54,9.40
2015,01,16,14,55,9.40
2015,01,16,14,56,9.40
2015,01,16,14,57,9.30
2015,01,16,14,58,9.30
2015,01,16,14,59,9.30
2015,01,16,15,00,9.30
2015,01,16,15,01,9.20
2015,01,16,15,02,9.20
2015,01,16,15,03,9.10
2015,01,16,15,04,9.00
2015,01,16,15,05,9.00
2015,01,16,15,06,8.90
2015,01,16,15,07,8.80
2015,01,16,15,08,8.70
2015,01,16,15,09,8.60
2015,01,16,15,10,8.60
2015,01,16,15,11,8.50
2015,01,16,15,12,8.50
2015,01,16,15,13,8.40
2015,01,16,15,14,8.40
2015,01,16,15,15,8.30
2015,01,16,15,16,8.30
2015,01,16,15,17,8.30
2015,01,16,15,18,8.30
2015,01,16,15,19,8.20
2015,01,16,15,20,8.20
2015,01,16,15,21,8.20
2015,01,16,15,22,8.20
2015,01,16,15,23,8.20
2015,01,16,15,24,8.20
2015,01,16,15,25,8.20
2015,01,16,15,26,8.10
2015,01,16,15,27,8.10
2015,01,16,15,28,8.10
2015,01,16,15,29,8.10
2015,01,16,15,30,8.10
2015,01,16,15,31,8.10
2015,01,16,15,32,8.10
2015,01,16,15,33,8.10
2015,01,16,15,34,8.10
2015,01,16,15,35,8.00
2015,01,16,15,36,8.00
2015,01,16,15,37,8.00
2015,01,16,15,38,8.00
2015,01,16,15,39,8.00
2015,01,16,15,40,8.00
2015,01,16,15,41,8.00
2015,01,16,15,42,8.00
2015,01,16,15,43,8.00
2015,01,16,15,44,8.00
2015,01,16,15,45,8.00
2015,01,16,15,46,7.90
2015,01,16,15,47,7.90
2015,01,16,15,48,7.90
2015,01,16,15,49,7.90
2015,01,16,15,50,7.90
2015,01,16,15,51,7.90
2015,01,16,15,52,7.90
2015,01,16,15,53,7.90
2015,01,16,15,54,7.90
2015,01,16,15,55,7.90
2015,01,16,15,56,7.90
2015,01,16,15,57,7.90
2015,01,16,15,58,7.80
2015,01,16,15,59,7.80
2015,01,16,16,00,7.80
2015,01,16,16,01,7.80
2015,01,16,16,02,7.80
2015,01,16,16,03,7.80
2015,01,16,16,04,7.80
2015,01,16,16,05,7.80
2015,01,16,16,06,7.80
2015,01,16,16,07,7.80
2015,01,16,16,08,7.70
2015,01,16,16,09,7.70
2015,01,16,16,10,7.70
2015,01,16,16,11,7.70
2015,01,16,16,12,7.70
2015,01,16,16,13,7.70
2015,01,16,16,14,7.70
2015,01,16,16,15,7.70
2015,01,16,16,16,7.70
2015,01,16,16,17,7.70
2015,01,16,16,18,7.70
2015,01,16,16,19,7.70
2015,01,16,16,20,7.70
2015,01,16,16,21,7.70
2015,01,16,16,22,7.70
2015,01,16,16,23,7.70
2015,01,16,16,24,7.70
2015,01,16,16,25,7.70
2015,01,16,16,26,7.60
2015,01,16,16,27,7.60
2015,01,16,16,28,7.60
2015,01,16,16,29,7.60
2015,01,16,16,30,7.60
2015,01,16,16,31,7.60
2015,01,16,16,32,7.60
2015,01,16,16,33,7.60
2015,01,16,16,34,7.60
2015,01,16,16,35,7.60
2015,01,16,16,36,7.60
2015,01,16,16,37,7.60
2015,01,16,16,38,7.60
2015,01,16,16,39,7.60
2015,01,16,16,40,7.60
2015,01,16,16,41,7.60
2015,01,16,16,42,7.60
2015,01,16,16,43,7.60
2015,01,16,16,44,7.50
2015,01,16,16,45,7.50
2015,01,16,16,46,7.50
2015,01,16,16,47,7.50
2015,01,16,16,48,7.50
2015,01,16,16,49,7.50
2015,01,16,16,50,7.50
2015,01,16,16,51,7.40
2015,01,16,16,52,7.40
2015,01,16,16,53,7.40
2015,01,16,16,54,7.40
2015,01,16,16,55,7.40
2015,01,16,16,56,7.40
2015,01,16,16,57,7.40
2015,01,16,16,58,7.40
2015,01,16,16,59,7.40
2015,01,16,17,00,7.40
2015,01,16,17,01,7.30
2015,01,16,17,02,7.30
2015,01,16,17,03,7.30
2015,01,16,17,04,7.30
2015,01,16,17,05,7.30
2015,01,16,17,06,7.30
2015,01,16,17,07,7.30
2015,01,16,17,08,7.30
2015,01,16,17,09,7.20
2015,01,16,17,10,7.20
2015,01,16,17,11,7.20
2015,01,16,17,12,7.20
2015,01,16,17,13,7.20
2015,01,16,17,14,7.20
2015,01,16,17,15,7.10
2015,01,16,17,16,7.10
2015,01,16,17,17,7.10
2015,01,16,17,18,7.10
2015,01,16,17,19,7.10
2015,01,16,17,20,7.10
2015,01,16,17,21,7.10
2015,01,16,17,22,7.10
2015,01,16,17,23,7.00
2015,01,16,17,24,7.10
2015,01,16,17,25,7.00
2015,01,16,17,26,7.00
2015,01,16,17,27,7.00
2015,01,16,17,28,7.00
2015,01,16,17,29,7.00
2015,01,16,17,30,7.00
2015,01,16,17,31,7.00
2015,01,16,17,32,7.00
2015,01,16,17,33,7.00
2015,01,16,17,34,7.00
2015,01,16,17,35,7.00
2015,01,16,17,36,7.00
2015,01,16,17,37,6.90
2015,01,16,17,38,6.90
2015,01,16,17,39,6.90
2015,01,16,17,40,6.90
2015,01,16,17,41,6.90
2015,01,16,17,42,6.90
2015,01,16,17,43,6.90
2015,01,16,17,44,6.90
2015,01,16,17,45,6.90
2015,01,16,17,46,6.90
2015,01,16,17,47,6.90
2015,01,16,17,48,6.90
2015,01,16,17,49,6.80
2015,01,16,17,50,6.80
2015,01,16,17,51,6.80
2015,01,16,17,52,6.80
2015,01,16,17,53,6.80
2015,01,16,17,54,6.80
2015,01,16,17,55,6.80
2015,01,16,17,56,6.80
2015,01,16,17,57,6.80
2015,01,16,17,58,6.80
2015,01,16,17,59,6.80
2015,01,16,18,00,6.80
2015,01,16,18,01,6.80
2015,01,16,18,02,6.80
2015,01,16,18,03,6.80
2015,01,16,18,04,6.80
2015,01,16,18,05,6.80
2015,01,16,18,06,6.80